Location: Newark
(52.3500°N, 175.9667°E)
Time: 08:42:58
(UTC+00:00)

N. Korean satellite - Pass Details

Date: 15 November 2019
Orbit: 456 x 506 km, 97.2° (Epoch: 06 December)

Event Time Altitude Azimuth Distance (km) Brightness Sun altitude
Rises 05:54:11 0° 192° (SSW) 2,549 10.6 -13.5°
Reaches altitude 10° 05:56:26 10° 205° (SSW) 1,683 9.8 -13.9°
Maximum altitude 05:59:36 28° 265° (W) 962 8.9 -14.3°
Drops below altitude 10° 06:02:50 10° 326° (NNW) 1,718 9.6 -14.8°
Sets 06:05:10 0° 339° (NNW) 2,614 10.4 -15.2°
